FW7316 Weather Reports


Display with metric or nautical units.
time (UTC)temp
F
wind
direction
speed
MPH
gust
MPH
rain 1hr
in
rain 24hr
in
rain mn
in
humidity
%
barometer
mb
20260506175603 61 163 7.0 14.0 0.01 0.43 0.42 80 1008.8
20260506175200 61 186 10.0 16.0 0.01 0.43 0.42 79 1008.8
20260506175007 61 171 7.0 16.0 0.01 0.43 0.42 79 1008.8
20260506174901 61 186 12.0 16.0 0.01 0.43 0.42 79 1008.8
20260506174807 61 189 6.0 16.0 0.01 0.43 0.42 79 1008.8
20260506174719 61 180 6.0 16.0 0.01 0.43 0.42 79 1008.8
20260506174611 61 173 9.0 16.0 0.01 0.43 0.42 79 1008.8
20260506174503 61 188 11.0 16.0 0.01 0.43 0.42 79 1008.7
20260506174414 61 180 10.0 16.0 0.01 0.43 0.42 79 1008.7
20260506174203 61 178 8.0 17.0 0.01 0.43 0.42 79 1008.7
20260506174103 61 194 14.0 17.0 0.01 0.43 0.42 79 1008.7
20260506174002 61 191 6.0 18.0 0.01 0.43 0.42 79 1008.7
20260506173902 61 188 12.0 18.0 0.01 0.43 0.42 79 1008.7
20260506173803 61 200 11.0 18.0 0.01 0.43 0.42 79 1008.8
20260506173700 61 186 10.0 17.0 0.01 0.43 0.42 79 1008.7
20260506173603 61 180 10.0 19.0 0.01 0.43 0.42 79 1008.7
20260506173504 61 178 11.0 19.0 0.01 0.43 0.42 79 1008.8
20260506173402 61 190 12.0 19.0 0.01 0.43 0.42 79 1008.7
20260506173205 61 207 9.0 19.0 0.02 0.43 0.42 79 1008.7
20260506173101 61 190 16.0 19.0 0.02 0.43 0.42 79 1008.7
20260506173006 61 205 10.0 19.0 0.02 0.43 0.42 80 1008.7
20260506172800 61 189 16.0 19.0 0.02 0.43 0.42 79 1008.6
20260506172702 61 193 15.0 19.0 0.02 0.43 0.42 80 1008.6
20260506172604 61 199 15.0 20.0 0.02 0.43 0.42 80 1008.7
20260506172500 62 198 14.0 20.0 0.02 0.43 0.42 80 1008.6
20260506172402 61 206 13.0 20.0 0.01 0.42 0.41 80 1008.7
20260506172200 62 195 10.0 19.0 0.01 0.42 0.41 80 1008.7
20260506172005 62 191 13.0 16.0 0.01 0.42 0.41 81 1008.6
20260506171903 62 217 11.0 16.0 0.01 0.42 0.41 80 1008.6
20260506171802 62 202 7.0 16.0 0.01 0.42 0.41 80 1008.6
20260506171703 62 196 9.0 16.0 0.01 0.42 0.41 80 1008.6
20260506171600 62 222 13.0 16.0 0.01 0.42 0.41 80 1008.6
20260506171504 62 232 11.0 16.0 0.01 0.42 0.41 80 1008.6
20260506171403 62 204 12.0 16.0 0.01 0.42 0.41 81 1008.6
20260506171300 62 209 10.0 17.0 0.01 0.42 0.41 81 1008.6
20260506171202 62 221 12.0 17.0 0.01 0.42 0.41 81 1008.7
20260506171105 62 186 8.0 17.0 0.01 0.42 0.41 81 1008.7
20260506171001 62 232 11.0 17.0 0.01 0.42 0.41 81 1008.7
20260506170900 62 225 12.0 17.0 0.01 0.42 0.41 81 1008.7
20260506170816 62 209 8.0 17.0 0.01 0.42 0.41 81 1008.7
20260506170700 62 189 11.0 17.0 0.01 0.42 0.41 82 1008.7
20260506170600 62 212 10.0 17.0 0.01 0.42 0.41 82 1008.7
20260506170503 62 218 14.0 17.0 0.01 0.42 0.41 83 1008.7
20260506170400 62 229 15.0 17.0 0.01 0.42 0.41 83 1008.6
20260506170300 62 216 8.0 19.0 0.01 0.42 0.41 83 1008.6
20260506170203 62 214 13.0 19.0 0.01 0.42 0.41 83 1008.6
20260506170005 62 232 13.0 19.0 0.01 0.42 0.41 84 1008.5
20260506165800 62 226 8.0 15.0 0.01 0.42 0.41 84 1008.6
20260506165700 62 219 9.0 14.0 0.01 0.42 0.41 84 1008.6
20260506165605 62 241 6.0 14.0 0.01 0.42 0.41 84 1008.6
20260506165500 62 230 10.0 13.0 0.01 0.42 0.41 85 1008.6
20260506165400 62 225 7.0 13.0 0.01 0.42 0.41 85 1008.5
20260506165305 61 219 11.0 13.0 0.01 0.42 0.41 85 1008.5
20260506165201 62 223 11.0 13.0 0.01 0.42 0.41 84 1008.4
20260506165101 61 231 11.0 13.0 0.01 0.42 0.41 84 1008.4
20260506164900 61 223 12.0 13.0 0.01 0.42 0.41 85 1008.4
20260506164800 62 239 10.0 11.0 0.01 0.42 0.41 85 1008.4
20260506164712 62 241 7.0 13.0 0.01 0.42 0.41 85 1008.4
20260506164600 62 244 5.0 13.0 0.01 0.42 0.41 84 1008.4
20260506164404 62 226 6.0 16.0 0.01 0.42 0.41 84 1008.4
20260506164302 62 225 8.0 16.0 0.01 0.42 0.41 84 1008.3
20260506164200 62 221 7.0 19.0 0.01 0.42 0.41 83 1008.3
20260506164103 62 222 8.0 19.0 0.01 0.42 0.41 83 1008.3
20260506164003 62 231 9.0 19.0 0.01 0.42 0.41 83 1008.3
20260506163900 62 213 7.0 19.0 0.01 0.42 0.41 83 1008.3
20260506163803 62 234 10.0 19.0 0.01 0.42 0.41 83 1008.3
20260506163700 62 227 8.0 19.0 0.01 0.42 0.41 82 1008.3
20260506163300 63 228 14.0 19.0 0.00 0.41 0.40 81 1008.3
20260506163203 63 222 14.0 19.0 0.00 0.41 0.40 81 1008.3
20260506163103 63 226 12.0 19.0 0.00 0.41 0.40 81 1008.3
20260506163001 63 225 13.0 19.0 0.00 0.41 0.40 80 1008.3
20260506162904 63 227 14.0 19.0 0.00 0.41 0.40 80 1008.3
20260506162700 63 224 14.0 19.0 0.00 0.41 0.40 80 1008.2
20260506162605 63 236 12.0 19.0 0.00 0.41 0.40 80 1008.2
20260506162502 63 228 16.0 19.0 0.00 0.41 0.40 80 1008.3
20260506162401 63 218 14.0 16.0 0.00 0.41 0.40 80 1008.3
20260506162306 63 232 11.0 16.0 0.00 0.41 0.40 79 1008.3
20260506162200 63 233 9.0 16.0 0.00 0.41 0.40 79 1008.2
20260506162100 63 225 15.0 16.0 0.00 0.41 0.40 79 1008.2
20260506162003 63 224 10.0 16.0 0.00 0.41 0.40 79 1008.2
20260506161901 63 224 7.0 16.0 0.00 0.41 0.40 79 1008.2
20260506161802 63 238 15.0 17.0 0.00 0.41 0.40 79 1008.2
20260506161703 63 216 9.0 17.0 0.00 0.41 0.40 79 1008.2
20260506161500 63 198 9.0 17.0 0.00 0.41 0.40 78 1008.2
20260506161403 63 225 6.0 17.0 0.00 0.41 0.40 79 1008.2
20260506161301 63 236 8.0 17.0 0.00 0.41 0.40 79 1008.2
20260506161200 64 232 7.0 17.0 0.00 0.41 0.40 78 1008.2
20260506161102 63 232 5.0 17.0 0.00 0.41 0.40 78 1008.2
20260506161002 63 223 8.0 17.0 0.00 0.41 0.40 78 1008.2
20260506160901 63 237 12.0 17.0 0.00 0.41 0.40 78 1008.2
20260506160806 63 229 16.0 17.0 0.00 0.41 0.40 78 1008.2
20260506160700 63 222 7.0 11.0 0.00 0.41 0.40 79 1008.3
20260506160600 63 226 7.0 14.0 0.00 0.41 0.40 79 1008.2
20260506160503 63 249 6.0 14.0 0.00 0.41 0.40 79 1008.2
20260506160407 63 185 4.0 14.0 0.00 0.41 0.40 79 1008.2
20260506160300 63 239 8.0 14.0 0.00 0.41 0.40 79 1008.2
20260506160200 63 214 8.0 14.0 0.00 0.41 0.40 79 1008.2
20260506160123 63 225 7.0 15.0 0.00 0.41 0.40 79 1008.2
20260506160006 63 194 7.0 15.0 0.00 0.41 0.40 79 1008.2
20260506155901 63 236 9.0 15.0 0.00 0.41 0.40 78 1008.1
20260506155806 63 224 8.0 15.0 0.00 0.41 0.40 78 1008.1
20260506155600 63 196 7.0 15.0 0.00 0.41 0.40 78 1008.2
20260506155504 63 207 6.0 15.0 0.00 0.41 0.40 78 1008.2
20260506155400 63 210 7.0 15.0 0.00 0.41 0.40 78 1008.1
20260506155300 63 200 7.0 15.0 0.00 0.41 0.40 78 1008.2
20260506155203 63 188 7.0 17.0 0.00 0.41 0.40 78 1008.2
20260506155100 63 192 12.0 17.0 0.00 0.41 0.40 78 1008.2
20260506155007 63 196 11.0 17.0 0.00 0.41 0.40 78 1008.2
20260506154905 63 199 10.0 17.0 0.00 0.41 0.40 79 1008.1
20260506154800 63 232 10.0 17.0 0.00 0.41 0.40 78 1008.1
20260506154608 63 205 12.0 17.0 0.00 0.41 0.40 79 1008.2
20260506154400 63 196 15.0 19.0 0.01 0.41 0.40 78 1008.2
20260506154200 63 201 12.0 19.0 0.01 0.41 0.40 78 1008.2
20260506154100 63 224 11.0 19.0 0.01 0.41 0.40 78 1008.2
20260506154007 63 218 12.0 19.0 0.01 0.41 0.40 78 1008.2
20260506153900 63 198 15.0 19.0 0.01 0.41 0.40 78 1008.3
20260506153800 63 225 15.0 19.0 0.02 0.41 0.40 78 1008.2
20260506153703 63 194 11.0 22.0 0.02 0.41 0.40 78 1008.2
20260506153601 63 216 14.0 22.0 0.02 0.41 0.40 78 1008.2
20260506153501 63 215 14.0 22.0 0.02 0.41 0.40 78 1008.2
20260506153402 63 201 15.0 22.0 0.03 0.41 0.40 78 1008.2
20260506153300 63 217 12.0 22.0 0.03 0.41 0.40 78 1008.2
20260506153200 63 202 11.0 22.0 0.03 0.41 0.40 78 1008.2
20260506153103 63 221 17.0 22.0 0.03 0.41 0.40 79 1008.2
20260506153002 63 187 13.0 22.0 0.03 0.41 0.40 79 1008.1
20260506152900 62 211 13.0 21.0 0.03 0.41 0.40 79 1008.2
20260506152802 62 237 14.0 21.0 0.03 0.41 0.40 79 1008.1
20260506152700 62 225 21.0 22.0 0.03 0.41 0.40 79 1008.2
20260506152603 62 221 18.0 21.0 0.03 0.41 0.40 80 1008.2
20260506152202 62 217 18.0 21.0 0.03 0.41 0.40 80 1008.2
20260506152001 61 217 12.0 21.0 0.03 0.41 0.40 81 1008.3
20260506151903 61 183 15.0 22.0 0.03 0.41 0.40 81 1008.2
20260506151800 61 207 17.0 22.0 0.03 0.41 0.40 82 1008.2
20260506151700 61 215 17.0 22.0 0.03 0.41 0.40 82 1008.2
20260506151609 61 225 12.0 22.0 0.03 0.41 0.40 82 1008.2
20260506151501 61 225 16.0 22.0 0.03 0.41 0.40 82 1008.2
20260506151400 61 229 15.0 22.0 0.03 0.41 0.40 82 1008.2
20260506151303 61 230 14.0 22.0 0.03 0.41 0.40 82 1008.2
20260506151200 61 229 16.0 22.0 0.03 0.41 0.40 82 1008.3
20260506151100 61 210 15.0 18.0 0.03 0.41 0.40 83 1008.3
20260506151005 61 194 10.0 18.0 0.03 0.41 0.40 83 1008.3
20260506150900 61 217 13.0 18.0 0.03 0.41 0.40 84 1008.4
20260506150804 61 225 13.0 17.0 0.03 0.41 0.40 84 1008.3
20260506150705 61 194 7.0 17.0 0.03 0.41 0.40 84 1008.3
20260506150621 61 229 10.0 17.0 0.03 0.41 0.40 84 1008.3
20260506150402 60 231 14.0 17.0 0.03 0.41 0.40 84 1008.3
20260506150304 60 226 11.0 17.0 0.03 0.41 0.40 86 1008.3
20260506150201 60 216 17.0 17.0 0.03 0.41 0.40 86 1008.3
20260506150009 60 231 8.0 11.0 0.03 0.41 0.40 86 1008.2
20260506145900 60 238 8.0 11.0 0.03 0.41 0.40 86 1008.2
20260506145804 60 227 6.0 11.0 0.03 0.41 0.40 86 1008.2
20260506145701 60 244 4.0 13.0 0.03 0.41 0.40 86 1008.2
20260506145605 60 239 4.0 20.0 0.03 0.41 0.40 86 1008.3
20260506145506 60 243 7.0 20.0 0.03 0.41 0.40 86 1008.3
20260506145300 60 261 7.0 20.0 0.03 0.41 0.40 86 1008.5
20260506145203 60 231 8.0 20.0 0.03 0.41 0.40 86 1008.5
20260506145100 60 237 8.0 20.0 0.03 0.41 0.40 86 1008.5
20260506145001 60 232 8.0 22.0 0.03 0.41 0.40 85 1008.5
20260506144905 60 242 9.0 24.0 0.03 0.41 0.40 85 1008.5
20260506144801 60 233 7.0 24.0 0.03 0.41 0.40 85 1008.5
20260506144700 60 227 13.0 31.0 0.03 0.41 0.40 85 1008.5
20260506144614 60 213 12.0 31.0 0.03 0.41 0.40 85 1008.5
20260506144501 61 233 15.0 31.0 0.02 0.40 0.39 84 1008.6
20260506144400 61 239 14.0 31.0 0.02 0.40 0.39 84 1008.6
20260506144302 61 251 15.0 31.0 0.02 0.40 0.39 84 1008.6
20260506144200 61 239 12.0 31.0 0.02 0.40 0.39 83 1008.7
20260506144100 61 222 14.0 31.0 0.02 0.40 0.39 82 1008.7
20260506144005 61 247 13.0 31.0 0.02 0.40 0.39 82 1008.7
20260506143800 62 223 23.0 31.0 0.02 0.39 0.39 80 1008.5
20260506143703 63 211 23.0 30.0 0.02 0.39 0.39 79 1008.5
20260506143600 63 227 23.0 30.0 0.01 0.39 0.38 79 1008.5
20260506143404 64 271 11.0 30.0 0.00 0.38 0.37 78 1008.5
20260506143300 64 261 21.0 30.0 0.00 0.38 0.37 76 1008.5
20260506143201 65 218 25.0 30.0 0.00 0.38 0.37 77 1008.5
20260506143103 65 216 19.0 20.0 0.00 0.38 0.37 77 1008.4
20260506143002 65 252 12.0 20.0 0.00 0.38 0.37 77 1008.4
20260506142803 65 245 14.0 24.0 0.00 0.38 0.37 76 1008.4
20260506142700 66 265 17.0 24.0 0.00 0.38 0.37 76 1008.4
20260506142601 66 259 8.0 24.0 0.00 0.38 0.37 76 1008.4
20260506142503 66 256 13.0 24.0 0.00 0.38 0.37 75 1008.2
20260506142401 66 265 15.0 24.0 0.00 0.38 0.37 74 1008.2
20260506142300 67 273 9.0 24.0 0.00 0.38 0.37 74 1008.1
20260506142204 67 279 12.0 24.0 0.00 0.38 0.37 72 1008.1
20260506142101 68 252 13.0 24.0 0.00 0.38 0.37 72 1008.0
20260506142001 68 261 14.0 24.0 0.00 0.38 0.37 70 1007.8
20260506141904 69 281 20.0 24.0 0.00 0.38 0.37 69 1007.9
20260506141800 70 282 20.0 24.0 0.00 0.38 0.37 67 1007.8
20260506141700 70 287 19.0 19.0 0.00 0.38 0.37 67 1007.8
20260506141603 70 272 6.0 10.0 0.00 0.38 0.37 65 1007.8
20260506141503 70 246 6.0 10.0 0.00 0.38 0.37 66 1007.7
20260506141303 71 291 6.0 10.0 0.00 0.38 0.37 67 1007.7
20260506141159 71 284 5.0 10.0 0.00 0.38 0.37 68 1007.7
20260506141101 71 281 8.0 10.0 0.00 0.38 0.37 67 1007.7
20260506141010 71 277 6.0 10.0 0.00 0.38 0.37 66 1007.7
20260506140700 71 269 6.0 8.0 0.00 0.38 0.37 65 1007.8
20260506140502 71 271 3.0 7.0 0.00 0.38 0.37 65 1007.8
20260506140305 72 286 7.0 7.0 0.00 0.38 0.37 64 1007.8
20260506140159 72 284 3.0 7.0 0.00 0.38 0.37 63 1007.8
20260506140132 72 292 6.0 7.0 0.00 0.38 0.37 63 1007.8
20260506135803 72 194 3.0 8.0 0.00 0.38 0.37 63 1007.8
20260506135602 72 185 7.0 8.0 0.00 0.38 0.37 63 1007.8
20260506135504 72 178 4.0 8.0 0.00 0.38 0.37 62 1007.8
20260506135404 72 163 3.0 8.0 0.00 0.38 0.37 61 1007.8
20260506135306 72 161 1.0 8.0 0.00 0.38 0.37 61 1007.8
20260506135105 72 146 3.0 8.0 0.00 0.38 0.37 63 1007.8
20260506135002 72 184 4.0 8.0 0.00 0.38 0.37 62 1007.8
20260506134859 72 160 4.0 10.0 0.00 0.38 0.37 60 1007.8
20260506134600 72 150 4.0 10.0 0.00 0.38 0.37 61 1007.9
20260506134526 72 138 8.0 10.0 0.00 0.38 0.37 61 1007.9
20260506134259 72 163 7.0 10.0 0.00 0.38 0.37 60 1007.9
20260506134004 72 188 8.0 11.0 0.00 0.38 0.37 60 1007.9
20260506133906 72 170 6.0 11.0 0.00 0.38 0.37 60 1007.9
20260506133801 72 187 8.0 11.0 0.00 0.38 0.37 61 1007.9
20260506133609 73 176 2.0 11.0 0.00 0.38 0.37 60 1007.9
20260506133516 73 176 5.0 11.0 0.00 0.38 0.37 58 1007.8
20260506133359 73 187 5.0 12.0 0.00 0.38 0.37 60 1007.9
20260506133303 73 179 7.0 12.0 0.00 0.38 0.37 62 1007.9
20260506133200 73 139 3.0 12.0 0.00 0.38 0.37 61 1007.9
20260506133100 73 169 9.0 12.0 0.00 0.38 0.37 60 1007.9
20260506133004 73 201 4.0 12.0 0.00 0.38 0.37 62 1007.9
20260506132859 73 194 5.0 12.0 0.00 0.38 0.37 63 1007.9
20260506132600 73 165 6.0 12.0 0.00 0.38 0.37 62 1008.0
20260506132500 73 135 5.0 12.0 0.00 0.38 0.37 63 1008.0
20260506132408 72 159 4.0 11.0 0.00 0.38 0.37 63 1008.0
20260506132300 72 185 4.0 11.0 0.00 0.38 0.37 62 1008.0
20260506132201 72 142 7.0 11.0 0.00 0.38 0.37 63 1008.0
20260506132103 72 162 5.0 11.0 0.00 0.38 0.37 62 1008.0
20260506132001 72 200 3.0 11.0 0.00 0.38 0.37 61 1008.0
20260506131901 73 161 8.0 11.0 0.00 0.38 0.37 63 1008.1
20260506131700 73 170 2.0 15.0 0.00 0.38 0.37 63 1008.0
20260506131600 73 226 3.0 15.0 0.00 0.38 0.37 64 1008.1
20260506131504 72 164 3.0 15.0 0.00 0.38 0.37 63 1008.1
20260506131400 72 176 5.0 15.0 0.00 0.38 0.37 62 1008.1
20260506131202 72 110 7.0 15.0 0.00 0.38 0.37 66 1008.1
20260506131059 72 162 6.0 15.0 0.00 0.38 0.37 64 1008.1
20260506131002 72 161 2.0 15.0 0.00 0.38 0.37 63 1008.2
20260506130905 72 163 3.0 15.0 0.00 0.38 0.37 61 1008.2
20260506130801 72 175 9.0 15.0 0.00 0.38 0.37 61 1008.2
20260506130700 73 184 15.0 15.0 0.00 0.38 0.37 61 1008.2
20260506130604 73 165 7.0 14.0 0.00 0.38 0.37 63 1008.2
20260506130501 73 157 8.0 14.0 0.00 0.38 0.37 63 1008.2
20260506130359 73 119 8.0 14.0 0.00 0.38 0.37 61 1008.2
20260506130303 73 123 5.0 14.0 0.00 0.38 0.37 63 1008.2
20260506130200 73 165 3.0 14.0 0.00 0.38 0.37 65 1008.1
20260506130006 73 128 10.0 14.0 0.00 0.38 0.37 66 1008.2
20260506125900 73 134 10.0 14.0 0.00 0.38 0.37 67 1008.2
20260506125759 72 161 10.0 14.0 0.00 0.38 0.37 66 1008.2
20260506125702 72 134 10.0 14.0 0.00 0.38 0.37 65 1008.2
20260506125600 72 153 5.0 12.0 0.00 0.38 0.37 66 1008.2
20260506125504 72 189 4.0 12.0 0.00 0.38 0.37 65 1008.2
20260506125402 72 175 4.0 15.0 0.00 0.38 0.37 64 1008.3
20260506125300 72 196 6.0 15.0 0.00 0.38 0.37 63 1008.3
20260506125159 72 170 8.0 15.0 0.00 0.38 0.37 63 1008.3
20260506125001 72 173 8.0 15.0 0.00 0.38 0.37 65 1008.3
20260506124859 72 161 3.0 15.0 0.00 0.38 0.37 69 1008.2
20260506124802 72 121 10.0 15.0 0.00 0.38 0.37 68 1008.2
20260506124700 71 152 6.0 15.0 0.00 0.38 0.37 66 1008.2
20260506124301 71 153 4.0 14.0 0.00 0.38 0.37 69 1008.3
20260506124203 70 154 8.0 14.0 0.00 0.38 0.37 67 1008.2
20260506124100 70 157 3.0 14.0 0.00 0.38 0.37 67 1008.3
20260506124001 70 157 6.0 14.0 0.00 0.38 0.37 68 1008.3
20260506123902 70 142 4.0 15.0 0.00 0.38 0.37 68 1008.3
20260506123800 70 133 10.0 15.0 0.00 0.38 0.37 69 1008.4
20260506123700 70 136 12.0 15.0 0.00 0.38 0.37 68 1008.3
20260506123605 70 159 7.0 15.0 0.00 0.38 0.37 67 1008.3
20260506123500 70 138 9.0 15.0 0.00 0.38 0.37 66 1008.3
20260506123302 70 155 6.0 15.0 0.00 0.38 0.37 67 1008.3
20260506123200 70 159 8.0 15.0 0.00 0.38 0.37 67 1008.3
20260506123059 70 147 8.0 15.0 0.00 0.38 0.37 68 1008.3
20260506123005 70 136 14.0 15.0 0.00 0.38 0.37 69 1008.3
20260506122900 70 129 11.0 14.0 0.00 0.38 0.37 69 1008.3
20260506122800 70 142 6.0 15.0 0.00 0.38 0.37 68 1008.3
20260506122703 70 163 4.0 15.0 0.00 0.38 0.37 68 1008.3
20260506122402 70 154 5.0 15.0 0.00 0.38 0.37 67 1008.3
20260506122306 70 138 9.0 15.0 0.00 0.38 0.37 67 1008.3
20260506122103 70 130 10.0 15.0 0.00 0.38 0.37 66 1008.3
20260506122002 70 136 11.0 15.0 0.00 0.38 0.37 66 1008.4
20260506121700 70 144 10.0 15.0 0.00 0.38 0.37 67 1008.3
20260506121611 70 163 7.0 15.0 0.00 0.38 0.37 66 1008.3
20260506121509 70 133 10.0 15.0 0.00 0.38 0.37 66 1008.3
20260506121203 70 144 5.0 12.0 0.00 0.38 0.37 67 1008.3
20260506121102 70 164 7.0 12.0 0.00 0.38 0.37 67 1008.4
20260506120902 70 165 3.0 12.0 0.00 0.38 0.37 66 1008.3
20260506120804 70 195 10.0 12.0 0.00 0.38 0.37 68 1008.3
20260506120700 70 187 9.0 10.0 0.00 0.38 0.37 67 1008.3
20260506120505 70 147 5.0 10.0 0.00 0.38 0.37 68 1008.4
20260506120400 70 158 5.0 10.0 0.00 0.38 0.37 67 1008.4
20260506120300 70 178 6.0 10.0 0.00 0.38 0.37 67 1008.4
20260506120204 70 182 9.0 10.0 0.00 0.38 0.37 69 1008.4
20260506120130 70 158 4.0 12.0 0.00 0.38 0.37 69 1008.5
20260506115904 70 136 5.0 12.0 0.00 0.39 0.37 69 1008.5
20260506115800 70 167 5.0 12.0 0.00 0.39 0.37 69 1008.5
20260506115700 70 165 3.0 12.0 0.00 0.39 0.37 69 1008.4
20260506115359 69 198 4.0 12.0 0.00 0.39 0.37 67 1008.5
20260506115306 69 167 4.0 12.0 0.00 0.39 0.37 68 1008.6
20260506115200 69 176 8.0 12.0 0.00 0.39 0.37 69 1008.6
20260506115059 69 175 7.0 12.0 0.01 0.39 0.37 68 1008.6
20260506115005 69 171 8.0 12.0 0.01 0.39 0.37 68 1008.6
20260506114900 69 159 3.0 11.0 0.01 0.39 0.37 68 1008.7
20260506114759 69 164 7.0 11.0 0.01 0.39 0.37 67 1008.7
20260506114702 69 164 5.0 11.0 0.01 0.39 0.37 68 1008.6
20260506114600 69 171 7.0 10.0 0.01 0.39 0.37 70 1008.6
20260506114501 69 165 6.0 10.0 0.01 0.39 0.37 70 1008.6
20260506114402 69 160 5.0 10.0 0.01 0.39 0.37 69 1008.6
20260506114259 69 164 7.0 10.0 0.01 0.39 0.37 70 1008.6
20260506114200 69 160 6.0 10.0 0.01 0.39 0.37 70 1008.6
20260506114000 69 163 3.0 14.0 0.01 0.39 0.37 71 1008.6
20260506113859 69 152 7.0 14.0 0.01 0.39 0.37 70 1008.6
20260506113802 69 157 4.0 14.0 0.01 0.39 0.37 70 1008.6
20260506113701 69 157 2.0 14.0 0.01 0.39 0.37 70 1008.6
20260506113559 69 169 4.0 14.0 0.01 0.39 0.37 70 1008.6
20260506113502 69 165 4.0 14.0 0.01 0.39 0.37 70 1008.6
20260506113400 69 162 4.0 19.0 0.01 0.39 0.37 70 1008.6
20260506113259 69 159 5.0 19.0 0.01 0.39 0.37 70 1008.6
20260506113117 69 178 5.0 19.0 0.01 0.39 0.37 70 1008.6
20260506113009 69 191 10.0 20.0 0.01 0.39 0.37 70 1008.6
20260506112907 69 206 9.0 20.0 0.01 0.39 0.37 70 1008.6
20260506112817 69 165 7.0 20.0 0.01 0.39 0.37 70 1008.5
20260506112700 69 186 15.0 20.0 0.01 0.39 0.37 69 1008.6
20260506112601 69 179 9.0 20.0 0.01 0.39 0.37 68 1008.6
20260506112504 69 190 11.0 20.0 0.01 0.39 0.37 69 1008.5
20260506112400 69 217 14.0 20.0 0.01 0.39 0.37 70 1008.6
20260506112300 69 193 10.0 20.0 0.01 0.39 0.37 69 1008.5
20260506112220 69 182 7.0 20.0 0.01 0.39 0.37 70 1008.5
20260506112101 69 194 14.0 20.0 0.01 0.39 0.37 70 1008.6
20260506112002 69 174 13.0 20.0 0.01 0.39 0.37 70 1008.5
20260506111801 69 200 14.0 20.0 0.01 0.39 0.37 70 1008.6
20260506111603 69 188 4.0 20.0 0.01 0.39 0.37 70 1008.6
20260506111500 69 192 13.0 20.0 0.01 0.39 0.37 70 1008.6
20260506111400 69 172 9.0 20.0 0.01 0.39 0.37 70 1008.6
20260506111200 69 191 12.0 22.0 0.01 0.39 0.37 71 1008.6
20260506111100 69 182 9.0 22.0 0.01 0.39 0.37 71 1008.6
20260506111004 69 202 13.0 22.0 0.01 0.39 0.37 72 1008.6
20260506110900 68 191 10.0 22.0 0.01 0.39 0.37 70 1008.6
20260506110800 68 167 9.0 22.0 0.01 0.39 0.37 71 1008.6
20260506110600 68 197 18.0 22.0 0.01 0.39 0.37 71 1008.7
20260506110502 68 170 16.0 22.0 0.01 0.39 0.37 70 1008.7
20260506110403 68 180 16.0 22.0 0.01 0.39 0.37 69 1008.7
20260506110300 68 192 15.0 22.0 0.01 0.39 0.37 72 1008.7
20260506110104 68 180 20.0 22.0 0.01 0.39 0.37 72 1008.8
20260506110005 68 171 20.0 21.0 0.01 0.39 0.37 72 1008.8
20260506105900 68 193 16.0 21.0 0.01 0.39 0.37 73 1008.9
20260506105805 68 185 8.0 21.0 0.01 0.39 0.37 71 1008.9
20260506105701 68 176 12.0 21.0 0.01 0.39 0.37 73 1008.9
20260506105559 68 165 14.0 21.0 0.01 0.39 0.37 73 1008.9
20260506105505 68 184 10.0 21.0 0.01 0.39 0.37 72 1008.9
20260506105304 68 184 18.0 18.0 0.01 0.39 0.37 72 1008.9
20260506105100 68 193 19.0 27.0 0.00 0.39 0.36 72 1008.8
20260506105000 68 168 11.0 27.0 0.00 0.39 0.36 72 1008.8
20260506104802 68 169 12.0 27.0 0.00 0.39 0.36 72 1008.9
20260506104700 68 176 9.0 27.0 0.00 0.39 0.36 72 1008.9
20260506104606 68 198 14.0 27.0 0.00 0.39 0.36 72 1008.9
20260506104503 68 201 10.0 27.0 0.00 0.39 0.36 72 1008.9
20260506104401 68 198 11.0 27.0 0.00 0.39 0.36 73 1008.9
20260506104302 68 171 15.0 27.0 0.00 0.39 0.36 73 1008.9
20260506104201 68 198 17.0 27.0 0.00 0.39 0.36 74 1008.9
20260506104100 68 152 13.0 24.0 0.00 0.39 0.36 74 1008.9
20260506104006 68 169 13.0 24.0 0.00 0.39 0.36 73 1008.9
20260506103801 68 173 11.0 24.0 0.00 0.39 0.36 72 1008.9
20260506103705 68 163 8.0 24.0 0.00 0.39 0.36 72 1008.9
20260506103600 68 194 7.0 24.0 0.00 0.39 0.36 72 1008.9
20260506103501 68 191 15.0 24.0 0.00 0.39 0.36 72 1008.9
20260506103403 68 164 10.0 24.0 0.00 0.39 0.36 73 1009.0
20260506103259 68 158 12.0 24.0 0.00 0.39 0.36 72 1008.9
20260506103200 68 204 14.0 21.0 0.00 0.39 0.36 73 1008.9
20260506103102 68 176 14.0 21.0 0.00 0.39 0.36 73 1008.9
20260506103003 68 174 11.0 21.0 0.00 0.39 0.36 72 1008.9
20260506102903 68 185 21.0 21.0 0.00 0.39 0.36 72 1009.0
20260506102803 68 173 15.0 21.0 0.00 0.39 0.36 71 1009.0
20260506102701 68 167 20.0 20.0 0.00 0.39 0.36 73 1009.1
20260506102600 68 192 11.0 20.0 0.00 0.39 0.36 73 1009.0
20260506102504 68 175 15.0 18.0 0.00 0.39 0.36 73 1009.0
20260506102401 68 181 10.0 16.0 0.00 0.39 0.36 73 1009.1
20260506102300 68 165 6.0 16.0 0.00 0.39 0.36 74 1009.1
20260506102203 68 178 9.0 16.0 0.00 0.39 0.36 73 1009.1
20260506102107 68 155 9.0 14.0 0.00 0.39 0.36 73 1009.1
20260506102001 68 184 13.0 14.0 0.00 0.39 0.36 73 1009.1
20260506101902 68 186 10.0 14.0 0.00 0.39 0.36 73 1009.2
20260506101807 69 174 8.0 12.0 0.00 0.39 0.36 73 1009.1
20260506101708 69 157 5.0 15.0 0.00 0.39 0.36 74 1009.1
20260506101301 68 156 7.0 15.0 0.00 0.39 0.36 74 1009.1
20260506101201 68 159 5.0 15.0 0.00 0.39 0.36 76 1009.1
20260506101103 68 172 6.0 15.0 0.00 0.39 0.36 74 1009.1
20260506101000 68 179 8.0 15.0 0.00 0.39 0.36 74 1009.2
20260506100900 68 160 4.0 15.0 0.00 0.39 0.36 74 1009.1
20260506100803 68 178 13.0 15.0 0.00 0.39 0.36 73 1009.1
20260506100700 68 163 10.0 21.0 0.00 0.39 0.36 74 1009.1
20260506100600 68 185 16.0 21.0 0.00 0.39 0.36 74 1009.2
20260506100503 68 166 10.0 21.0 0.00 0.39 0.36 74 1009.1
20260506100400 68 179 7.0 21.0 0.00 0.39 0.36 73 1009.0
20260506100203 68 161 4.0 21.0 0.00 0.39 0.36 74 1009.0
20260506100131 68 168 8.0 21.0 0.00 0.39 0.36 73 1009.1
20260506095801 68 178 11.0 21.0 0.00 0.39 0.36 73 1009.2
20260506095701 68 165 8.0 17.0 0.00 0.39 0.36 73 1009.2
20260506095607 68 167 14.0 17.0 0.00 0.39 0.36 73 1009.2
20260506095501 68 178 11.0 17.0 0.00 0.39 0.36 73 1009.2
20260506095400 68 159 9.0 17.0 0.00 0.39 0.36 74 1009.2
20260506095306 68 173 9.0 17.0 0.00 0.39 0.36 74 1009.2
20260506095200 68 187 9.0 17.0 0.00 0.39 0.36 73 1009.3
20260506095101 68 203 16.0 17.0 0.00 0.39 0.36 74 1009.2
20260506095003 68 217 10.0 14.0 0.00 0.39 0.36 74 1009.2
20260506094801 68 177 6.0 14.0 0.00 0.39 0.36 76 1009.3
20260506094703 68 167 6.0 14.0 0.00 0.39 0.36 76 1009.2
20260506094600 68 179 7.0 14.0 0.00 0.39 0.36 75 1009.2
20260506094500 68 190 10.0 13.0 0.00 0.39 0.36 74 1009.2
20260506094402 68 186 7.0 13.0 0.00 0.39 0.36 75 1009.2
20260506094259 68 160 6.0 13.0 0.00 0.39 0.36 74 1009.2
20260506094102 68 183 12.0 12.0 0.00 0.39 0.36 74 1009.2
20260506093900 68 198 5.0 12.0 0.00 0.39 0.36 74 1009.2
20260506093503 68 176 8.0 15.0 0.00 0.39 0.36 73 1009.1
20260506093001 68 161 8.0 15.0 0.00 0.39 0.36 76 1009.1
20260506092903 68 142 4.0 15.0 0.00 0.39 0.36 75 1009.1
20260506092759 68 137 9.0 15.0 0.00 0.39 0.36 75 1009.1
20260506092603 68 136 13.0 17.0 0.00 0.39 0.36 76 1009.1
20260506092501 68 182 7.0 17.0 0.00 0.39 0.36 76 1009.2
20260506092400 68 142 6.0 17.0 0.00 0.39 0.36 75 1009.1
20260506092200 68 194 6.0 17.0 0.00 0.39 0.36 76 1009.1
20260506092100 68 164 4.0 17.0 0.00 0.39 0.36 76 1009.1
20260506092010 68 166 3.0 17.0 0.00 0.39 0.36 74 1009.1
20260506091900 68 144 4.0 17.0 0.00 0.39 0.36 75 1009.2
20260506091800 68 156 4.0 17.0 0.00 0.39 0.36 76 1009.2
20260506091703 68 184 7.0 17.0 0.00 0.39 0.36 76 1009.2
20260506091600 68 165 7.0 15.0 0.00 0.39 0.36 76 1009.2
20260506091500 67 157 5.0 13.0 0.00 0.39 0.36 76 1009.2
20260506091402 67 178 8.0 10.0 0.00 0.39 0.36 77 1009.2
20260506091300 67 179 4.0 11.0 0.00 0.39 0.36 76 1009.2
20260506091200 67 165 4.0 11.0 0.00 0.39 0.36 77 1009.1
20260506091104 67 147 5.0 11.0 0.00 0.39 0.36 77 1009.1
20260506091000 67 164 4.0 11.0 0.00 0.39 0.36 77 1009.1
20260506090900 67 155 5.0 13.0 0.00 0.39 0.36 78 1009.1
20260506090803 67 163 5.0 13.0 0.00 0.39 0.36 78 1009.1
20260506090708 67 153 4.0 13.0 0.00 0.39 0.36 77 1009.1
20260506090559 67 163 3.0 13.0 0.00 0.39 0.36 77 1009.1
20260506090503 67 176 4.0 13.0 0.00 0.39 0.36 78 1009.1
20260506090400 67 133 7.0 13.0 0.00 0.39 0.36 77 1009.1
20260506090300 67 132 6.0 13.0 0.00 0.39 0.36 78 1009.1
20260506090202 67 132 10.0 13.0 0.00 0.39 0.36 78 1009.1
20260506090100 67 173 6.0 13.0 0.00 0.39 0.36 77 1009.1
20260506085907 67 132 12.0 14.0 0.00 0.39 0.36 78 1009.1
20260506085701 67 154 8.0 12.0 0.00 0.39 0.36 78 1009.1
20260506085603 67 116 9.0 11.0 0.00 0.39 0.36 78 1009.1
20260506085500 67 128 7.0 10.0 0.00 0.39 0.36 78 1009.1
20260506085400 67 140 10.0 11.0 0.00 0.39 0.36 78 1009.1
20260506085306 67 93 9.0 10.0 0.00 0.39 0.36 77 1009.1
20260506085200 67 184 2.0 9.0 0.00 0.39 0.36 78 1009.1
20260506084901 67 170 3.0 12.0 0.00 0.39 0.36 79 1009.1
20260506084800 67 118 8.0 17.0 0.00 0.39 0.36 80 1009.1
20260506084705 67 124 9.0 17.0 0.00 0.39 0.36 81 1009.1
20260506084600 67 126 7.0 17.0 0.00 0.39 0.36 81 1009.1
20260506084500 67 117 8.0 17.0 0.00 0.39 0.36 80 1009.0
20260506084402 66 130 9.0 17.0 0.00 0.39 0.36 80 1009.0
20260506084300 66 110 9.0 17.0 0.00 0.39 0.36 81 1009.0
20260506084200 66 138 6.0 17.0 0.00 0.39 0.36 81 1009.1
20260506084103 66 127 8.0 17.0 0.00 0.39 0.36 82 1009.0
20260506084009 66 136 9.0 17.0 0.00 0.39 0.36 82 1009.0
20260506083900 66 130 9.0 17.0 0.00 0.39 0.36 82 1009.0
20260506083659 66 132 3.0 12.0 0.00 0.39 0.36 83 1009.1
20260506083558 65 130 12.0 12.0 0.00 0.39 0.36 83 1009.1
20260506083503 65 103 5.0 12.0 0.00 0.39 0.36 83 1009.2
20260506083403 65 90 7.0 12.0 0.00 0.39 0.36 83 1009.2
20260506083301 65 109 10.0 12.0 0.00 0.39 0.36 83 1009.2
20260506083202 65 123 9.0 12.0 0.00 0.39 0.36 83 1009.2
20260506083100 65 122 5.0 12.0 0.00 0.39 0.36 84 1009.2
20260506083001 65 112 7.0 12.0 0.00 0.39 0.36 85 1009.2
20260506082903 65 110 4.0 12.0 0.00 0.39 0.36 84 1009.2
20260506082800 65 122 7.0 12.0 0.00 0.39 0.36 84 1009.2
20260506082700 65 126 4.0 12.0 0.00 0.39 0.36 85 1009.2
20260506082603 65 118 8.0 12.0 0.00 0.39 0.36 86 1009.2
20260506082502 65 54 8.0 12.0 0.00 0.39 0.36 87 1009.2
20260506082403 65 58 11.0 12.0 0.00 0.39 0.36 87 1009.1
20260506082305 65 68 7.0 12.0 0.00 0.39 0.36 87 1009.1
20260506082200 65 84 6.0 12.0 0.00 0.39 0.36 87 1009.1
20260506082100 65 79 6.0 12.0 0.00 0.39 0.36 87 1009.2
20260506081900 64 82 3.0 12.0 0.00 0.39 0.36 87 1009.1
20260506081702 64 82 7.0 12.0 0.00 0.39 0.36 87 1009.1
20260506081600 64 101 7.0 12.0 0.00 0.39 0.36 87 1009.1
20260506081459 64 82 8.0 13.0 0.00 0.39 0.36 87 1009.2
20260506081403 64 89 6.0 13.0 0.00 0.39 0.36 87 1009.2
20260506081300 64 90 8.0 13.0 0.00 0.39 0.36 87 1009.2
20260506081103 64 129 7.0 13.0 0.00 0.39 0.36 88 1009.1
20260506081000 64 97 3.0 13.0 0.00 0.39 0.36 88 1009.1
20260506080901 64 98 8.0 13.0 0.00 0.39 0.36 88 1009.2
20260506080803 64 94 11.0 13.0 0.00 0.39 0.36 88 1009.2
20260506080701 64 113 9.0 13.0 0.00 0.39 0.36 89 1009.2
20260506080600 64 121 10.0 13.0 0.00 0.39 0.36 89 1009.2
20260506080503 64 99 9.0 13.0 0.00 0.39 0.36 89 1009.2
20260506080400 64 90 9.0 13.0 0.00 0.39 0.36 90 1009.2
20260506080303 63 96 9.0 13.0 0.00 0.39 0.36 90 1009.2
20260506073503 60 102 8.0 9.0 0.00 0.39 0.36 92 1009.2
20260506073400 60 84 5.0 9.0 0.00 0.39 0.36 92 1009.2
20260506073302 60 105 5.0 9.0 0.00 0.39 0.36 92 1009.2
20260506073201 60 109 3.0 9.0 0.00 0.39 0.36 92 1009.3
20260506073100 60 97 7.0 9.0 0.00 0.39 0.36 93 1009.2
20260506073003 60 122 4.0 9.0 0.00 0.39 0.36 93 1009.3
20260506072904 60 107 5.0 8.0 0.00 0.39 0.36 93 1009.3
20260506072800 60 95 6.0 8.0 0.00 0.39 0.36 93 1009.3
20260506072703 60 109 4.0 8.0 0.00 0.39 0.36 93 1009.3
20260506072402 59 82 3.0 9.0 0.00 0.39 0.36 93 1009.3
20260506072305 59 122 3.0 9.0 0.00 0.39 0.36 93 1009.3
20260506072200 59 97 5.0 9.0 0.00 0.39 0.36 93 1009.3
20260506072102 59 116 4.0 9.0 0.00 0.39 0.36 93 1009.2
20260506071801 59 107 4.0 9.0 0.00 0.39 0.36 93 1009.3
20260506071601 59 128 5.0 10.0 0.00 0.39 0.36 93 1009.4
20260506071502 59 118 5.0 11.0 0.00 0.39 0.36 93 1009.4
20260506071406 59 116 7.0 11.0 0.00 0.39 0.36 94 1009.4
20260506071301 59 134 6.0 11.0 0.00 0.39 0.36 94 1009.5
20260506071202 59 138 8.0 11.0 0.00 0.39 0.36 94 1009.3
20260506071103 59 138 6.0 11.0 0.00 0.39 0.36 94 1009.3
20260506071001 59 119 5.0 11.0 0.00 0.39 0.36 94 1009.2
20260506070903 59 122 7.0 11.0 0.00 0.39 0.36 94 1009.3
20260506070804 59 119 7.0 11.0 0.00 0.39 0.36 94 1009.3
20260506070659 59 138 7.0 11.0 0.00 0.39 0.36 95 1009.3
20260506070603 59 128 8.0 11.0 0.00 0.39 0.36 95 1009.3
20260506070400 59 115 9.0 11.0 0.00 0.39 0.36 95 1009.3
20260506070302 59 132 10.0 11.0 0.00 0.39 0.36 95 1009.4
20260506070202 59 136 7.0 12.0 0.00 0.39 0.36 95 1009.4
20260506062500 58 131 3.0 9.0 0.00 0.70 0.36 96 1009.7
20260506062400 58 113 5.0 9.0 0.00 0.70 0.36 96 1009.6
20260506062306 58 119 4.0 9.0 0.00 0.70 0.36 96 1009.6
20260506062200 58 101 3.0 9.0 0.00 0.70 0.36 96 1009.7
20260506062100 58 136 5.0 9.0 0.00 0.70 0.36 96 1009.7
20260506062005 58 146 3.0 9.0 0.00 0.70 0.36 96 1009.7
20260506061902 58 141 4.0 9.0 0.00 0.70 0.36 96 1009.7
20260506061800 58 157 5.0 9.0 0.00 0.70 0.36 96 1009.7
20260506061705 58 143 4.0 9.0 0.00 0.70 0.36 96 1009.7
20260506061600 58 138 6.0 9.0 0.00 0.70 0.36 96 1009.8
20260506061502 58 122 5.0 8.0 0.00 0.70 0.36 96 1009.8
20260506061402 58 130 4.0 7.0 0.00 0.70 0.36 96 1009.8
20260506061259 58 142 6.0 7.0 0.00 0.70 0.36 96 1009.9
20260506061113 58 137 5.0 7.0 0.00 0.70 0.36 96 1009.9
20260506060858 58 140 4.0 5.0 0.01 0.70 0.36 96 1009.8
20260506060824 58 124 3.0 5.0 0.01 0.70 0.36 96 1009.8
20260506060713 58 119 4.0 5.0 0.01 0.70 0.36 96 1009.9
20260506060600 58 139 3.0 5.0 0.01 0.70 0.36 96 1009.9
20260506060504 58 135 2.0 5.0 0.01 0.70 0.36 96 1009.9
20260506060401 57 140 4.0 5.0 0.01 0.70 0.36 96 1009.9
20260506060203 57 142 2.0 4.0 0.01 0.70 0.36 96 1009.9
20260506060115 57 142 4.0 4.0 0.01 0.70 0.36 96 1009.9
20260506051403 56 156 2.0 5.0 0.08 0.73 0.36 96 1010.2
20260506051200 56 156 1.0 6.0 0.08 0.73 0.36 96 1010.2
20260506051102 56 156 3.0 6.0 0.08 0.73 0.36 96 1010.2
20260506051000 56 156 3.0 6.0 0.07 0.72 0.35 96 1010.3
20260506050900 56 156 2.0 6.0 0.07 0.72 0.35 96 1010.3
20260506050802 56 156 2.0 6.0 0.07 0.72 0.35 96 1010.3
20260506050700 56 157 3.0 6.0 0.07 0.72 0.35 96 1010.3
20260506050600 56 156 1.0 6.0 0.07 0.72 0.35 96 1010.3
20260506050504 56 146 3.0 6.0 0.07 0.72 0.35 96 1010.3
20260506050400 56 143 3.0 6.0 0.07 0.72 0.35 96 1010.3
20260506050300 56 142 4.0 6.0 0.07 0.72 0.35 95 1010.2
20260506050202 56 137 5.0 5.0 0.07 0.72 0.35 95 1010.2
20260506045100 56 224 4.0 4.0 0.06 0.71 0.33 95 1010.4
20260506045003 56 224 1.0 3.0 0.06 0.71 0.33 95 1010.4
20260506044859 56 224 1.0 6.0 0.06 0.71 0.33 95 1010.4
20260506044758 56 224 1.0 6.0 0.06 0.70 0.32 95 1010.4
20260506044602 56 224 0.0 6.0 0.06 0.70 0.32 95 1010.3
20260506044500 56 224 0.0 6.0 0.06 0.69 0.31 95 1010.3
20260506044300 56 224 0.0 6.0 0.06 0.69 0.31 95 1010.4
20260506044159 56 224 0.0 6.0 0.06 0.68 0.30 95 1010.4
20260506044103 56 224 1.0 6.0 0.06 0.68 0.30 95 1010.5
20260506044000 56 224 3.0 6.0 0.06 0.67 0.29 95 1010.5
20260506043900 56 224 5.0 6.0 0.06 0.67 0.29 95 1010.5
20260506043803 56 224 6.0 6.0 0.06 0.67 0.29 95 1010.5
20260506043600 56 231 3.0 4.0 0.07 0.67 0.29 95 1010.4
20260506043503 56 231 2.0 5.0 0.07 0.67 0.29 95 1010.4
20260506043400 56 231 1.0 5.0 0.08 0.67 0.29 95 1010.3
20260506043300 56 231 0.0 5.0 0.09 0.67 0.29 95 1010.3
20260506043202 56 231 1.0 5.0 0.09 0.67 0.29 95 1010.4
20260506043100 56 231 2.0 5.0 0.10 0.67 0.29 95 1010.5
20260506043001 56 231 2.0 5.0 0.11 0.67 0.29 95 1010.5
20260506042905 56 231 1.0 5.0 0.11 0.67 0.29 95 1010.5
20260506042801 56 231 2.0 5.0 0.13 0.67 0.29 95 1010.5
20260506042701 56 231 3.0 7.0 0.14 0.67 0.29 95 1010.5
20260506042500 56 231 4.0 7.0 0.19 0.67 0.29 95 1010.4
20260506042400 56 148 3.0 7.0 0.20 0.67 0.29 95 1010.5
20260506042305 55 84 0.0 7.0 0.20 0.67 0.29 95 1010.4
20260506042200 56 84 0.0 7.0 0.21 0.67 0.29 95 1010.4
20260506042100 56 84 1.0 7.0 0.22 0.67 0.29 95 1010.4
20260506042009 55 84 1.0 7.0 0.22 0.67 0.29 95 1010.4
20260506041900 55 84 2.0 7.0 0.22 0.67 0.29 95 1010.4
20260506041701 56 82 7.0 7.0 0.22 0.67 0.29 95 1010.3
20260506041602 55 80 7.0 7.0 0.22 0.67 0.29 95 1010.3
20260506041501 56 86 7.0 7.0 0.21 0.66 0.28 95 1010.3
20260506041403 56 80 6.0 6.0 0.21 0.66 0.28 95 1010.3
20260506041300 56 84 3.0 6.0 0.21 0.66 0.28 95 1010.4
20260506041201 56 284 1.0 9.0 0.21 0.66 0.28 95 1010.4
20260506041103 55 284 0.0 9.0 0.21 0.66 0.28 95 1010.4
20260506040803 55 284 4.0 10.0 0.21 0.66 0.28 95 1010.4
20260506040700 55 281 2.0 10.0 0.21 0.66 0.28 95 1010.4
20260506040600 55 264 4.0 10.0 0.21 0.66 0.28 95 1010.5
20260506040503 55 223 3.0 10.0 0.21 0.66 0.28 95 1010.7
20260506040404 55 223 6.0 10.0 0.21 0.66 0.28 95 1010.7
20260506040300 55 208 5.0 10.0 0.21 0.66 0.28 95 1010.8
20260506040202 55 194 7.0 10.0 0.21 0.66 0.28 95 1010.8
20260506040112 55 193 7.0 11.0 0.21 0.66 0.28 95 1010.7
20260506040005 56 178 7.0 11.0 0.21 0.66 0.28 95 1010.7
20260506035907 55 161 2.0 11.0 0.21 0.69 0.28 95 1010.7
20260506035800 56 138 4.0 11.0 0.21 0.69 0.28 95 1010.7
20260506035701 56 191 2.0 11.0 0.21 0.69 0.28 95 1010.7
20260506035603 56 191 3.0 11.0 0.21 0.69 0.28 95 1010.8
20260506035500 56 191 2.0 11.0 0.20 0.68 0.28 95 1010.9
20260506035400 56 236 4.0 11.0 0.20 0.68 0.28 95 1010.9
20260506035306 56 207 5.0 12.0 0.20 0.68 0.28 94 1010.9
20260506035200 56 215 9.0 12.0 0.20 0.68 0.28 95 1011.0
20260506035005 56 234 10.0 12.0 0.20 0.67 0.27 94 1010.9
20260506034900 56 247 8.0 12.0 0.20 0.67 0.27 94 1010.8
20260506034702 56 233 8.0 12.0 0.19 0.66 0.26 94 1010.8
20260506034600 56 227 7.0 12.0 0.19 0.66 0.26 94 1010.8
20260506034500 56 203 8.0 12.0 0.18 0.65 0.25 94 1010.8
20260506034200 56 209 7.0 11.0 0.17 0.65 0.24 94 1010.9
20260506034104 56 225 8.0 14.0 0.17 0.64 0.24 94 1010.8
20260506034003 56 221 9.0 14.0 0.17 0.64 0.24 94 1010.7
20260506033900 56 227 8.0 14.0 0.16 0.63 0.23 94 1010.8
20260506033802 56 240 7.0 14.0 0.16 0.63 0.23 94 1010.8
20260506033700 57 252 3.0 14.0 0.16 0.63 0.23 94 1010.8
20260506033600 57 233 5.0 14.0 0.15 0.62 0.22 94 1010.8
20260506033503 57 257 6.0 14.0 0.15 0.62 0.22 94 1010.8
20260506033358 57 237 3.0 14.0 0.14 0.61 0.21 94 1010.9
20260506033308 57 235 6.0 14.0 0.13 0.61 0.20 94 1010.9
20260506033206 57 240 9.0 14.0 0.13 0.60 0.20 94 1010.9
20260506033059 57 228 6.0 12.0 0.12 0.59 0.19 94 1010.8
20260506032903 57 267 4.0 12.0 0.11 0.58 0.18 94 1010.5
20260506032759 57 284 3.0 12.0 0.09 0.57 0.17 94 1010.4
20260506032700 58 276 5.0 12.0 0.08 0.55 0.15 94 1010.3
20260506032607 58 309 5.0 12.0 0.06 0.53 0.13 94 1010.3
20260506032500 58 296 5.0 12.0 0.03 0.50 0.10 95 1010.3
20260506032359 58 287 8.0 12.0 0.02 0.50 0.09 95 1010.4
20260506032305 58 287 7.0 12.0 0.02 0.50 0.09 95 1010.6
20260506032200 58 281 5.0 12.0 0.01 0.48 0.08 95 1010.7
20260506032100 58 271 5.0 10.0 0.00 0.47 0.07 95 1010.7
20260506031800 58 260 7.0 8.0 0.01 0.47 0.07 95 1010.4
20260506031702 58 248 4.0 5.0 0.01 0.47 0.07 95 1010.3
20260506031459 58 263 3.0 4.0 0.01 0.47 0.07 95 1010.0
20260506031403 58 290 2.0 4.0 0.02 0.47 0.07 95 1009.9
20260506031300 58 123 3.0 6.0 0.02 0.47 0.07 95 1009.9
20260506031200 58 123 1.0 6.0 0.02 0.47 0.07 95 1009.8
20260506031103 58 123 0.0 6.0 0.02 0.47 0.07 95 1009.7
20260506031000 58 123 0.0 6.0 0.02 0.47 0.07 95 1009.7
20260506030859 58 123 1.0 6.0 0.02 0.47 0.07 95 1009.7
20260506030802 58 123 1.0 6.0 0.02 0.47 0.07 95 1009.7
20260506030700 58 123 1.0 6.0 0.02 0.47 0.07 95 1009.6
20260506030559 58 123 3.0 6.0 0.02 0.47 0.07 95 1009.6
20260506030503 58 99 2.0 6.0 0.02 0.47 0.07 95 1009.6
20260506030400 58 99 1.0 6.0 0.02 0.47 0.07 95 1009.6
20260506030301 58 99 6.0 6.0 0.02 0.47 0.07 95 1009.6
20260506030203 58 98 5.0 5.0 0.02 0.47 0.07 95 1009.6
20260506030100 58 101 3.0 4.0 0.02 0.47 0.07 95 1009.6
20260506025700 58 77 3.0 4.0 0.02 0.47 0.07 95 1009.5
20260506025601 58 72 4.0 4.0 0.02 0.47 0.07 95 1009.6
20260506025500 58 201 2.0 4.0 0.02 0.47 0.07 95 1009.6
20260506025400 58 201 3.0 4.0 0.02 0.47 0.07 95 1009.6
20260506025209 58 201 2.0 4.0 0.02 0.47 0.07 95 1009.7
20260506025004 58 201 2.0 4.0 0.02 0.47 0.07 95 1009.8
20260506024859 58 201 3.0 4.0 0.02 0.47 0.07 95 1009.7
20260506024702 58 201 3.0 4.0 0.02 0.47 0.07 95 1009.8
20260506024600 58 201 3.0 3.0 0.02 0.47 0.07 95 1009.8
20260506024500 58 201 2.0 4.0 0.02 0.47 0.07 95 1009.8
20260506024407 58 201 2.0 4.0 0.02 0.47 0.07 94 1009.8
20260506024300 58 201 3.0 4.0 0.02 0.47 0.07 95 1009.8
20260506024159 58 201 2.0 4.0 0.02 0.47 0.07 94 1009.9
20260506024102 58 201 2.0 4.0 0.02 0.47 0.07 94 1009.9
20260506024001 58 201 1.0 4.0 0.02 0.47 0.07 94 1009.9
20260506023859 58 201 1.0 4.0 0.02 0.47 0.07 94 1009.9
20260506023659 58 201 2.0 4.0 0.02 0.47 0.07 94 1009.9
20260506023558 58 201 2.0 4.0 0.02 0.47 0.07 94 1009.9
20260506023502 58 201 4.0 4.0 0.02 0.47 0.07 94 1009.9
20260506023300 58 201 2.0 4.0 0.02 0.47 0.07 94 1010.0
20260506023203 58 201 3.0 4.0 0.02 0.47 0.07 94 1010.0
20260506023100 58 201 3.0 4.0 0.02 0.47 0.07 94 1010.0
20260506023000 58 201 3.0 4.0 0.02 0.47 0.07 94 1010.0
20260506022904 58 201 3.0 4.0 0.02 0.47 0.07 94 1010.0
20260506022800 58 201 2.0 4.0 0.02 0.47 0.07 94 1010.1
20260506022659 58 201 0.0 5.0 0.02 0.47 0.07 94 1010.2
20260506022602 58 201 0.0 5.0 0.02 0.47 0.07 94 1010.1
20260506022500 58 201 0.0 6.0 0.02 0.47 0.07 94 1010.2
20260506022400 58 201 1.0 7.0 0.02 0.47 0.07 94 1010.2
20260506022306 58 201 1.0 7.0 0.02 0.47 0.07 94 1010.2
20260506022200 58 201 0.0 7.0 0.02 0.47 0.07 94 1010.3
20260506022059 58 201 3.0 8.0 0.02 0.47 0.07 94 1010.3
20260506022006 58 201 2.0 8.0 0.02 0.47 0.07 94 1010.3
20260506021801 58 201 4.0 8.0 0.01 0.46 0.06 94 1010.5
20260506021602 58 231 3.0 8.0 0.01 0.46 0.06 95 1010.5
20260506021501 58 252 5.0 8.0 0.01 0.46 0.06 95 1010.5
20260506021404 58 253 4.0 8.0 0.00 0.46 0.06 95 1010.5
20260506021300 58 234 5.0 9.0 0.00 0.46 0.06 95 1010.6
20260506021200 58 246 7.0 9.0 0.00 0.46 0.06 95 1010.6
20260506021103 58 237 6.0 9.0 0.01 0.46 0.06 95 1010.5
20260506020901 58 277 3.0 9.0 0.01 0.46 0.06 95 1010.4
20260506020804 58 284 3.0 9.0 0.01 0.46 0.06 95 1010.4
20260506020503 58 256 3.0 9.0 0.01 0.46 0.06 94 1010.5
20260506020400 59 261 6.0 9.0 0.01 0.46 0.06 94 1010.7
20260506020204 59 315 8.0 9.0 0.01 0.46 0.06 95 1010.8
20260506020115 59 280 4.0 9.0 0.01 0.46 0.06 95 1010.8
20260506020005 59 286 5.0 9.0 0.01 0.46 0.06 95 1011.0
20260506015902 59 261 8.0 8.0 0.01 0.46 0.06 95 1011.0
20260506015759 59 246 7.0 8.0 0.01 0.46 0.06 95 1011.0
20260506015500 59 285 6.0 8.0 0.01 0.46 0.06 95 1010.9
20260506015400 59 287 8.0 8.0 0.01 0.46 0.06 95 1010.8
20260506015305 59 261 8.0 8.0 0.01 0.46 0.06 95 1010.7
20260506015200 59 279 4.0 7.0 0.01 0.46 0.06 95 1010.6
20260506015059 59 273 4.0 6.0 0.01 0.46 0.06 95 1010.5
20260506015004 59 281 4.0 6.0 0.01 0.46 0.06 95 1010.5
20260506014759 59 317 3.0 6.0 0.01 0.46 0.06 95 1010.4
20260506014703 59 317 3.0 6.0 0.01 0.46 0.06 95 1010.4
20260506014559 59 317 3.0 6.0 0.01 0.46 0.06 95 1010.4
20260506014502 59 317 3.0 6.0 0.01 0.46 0.06 95 1010.4
20260506014202 59 317 3.0 6.0 0.01 0.46 0.06 94 1010.4
20260506014102 59 317 2.0 6.0 0.01 0.46 0.06 94 1010.4
20260506014005 59 324 4.0 5.0 0.01 0.46 0.06 95 1010.4
20260506013900 59 323 3.0 5.0 0.01 0.46 0.06 95 1010.3
20260506013804 59 324 4.0 5.0 0.01 0.46 0.06 95 1010.3
20260506013700 59 328 4.0 4.0 0.02 0.46 0.06 95 1010.2
20260506013559 59 316 3.0 4.0 0.02 0.46 0.06 95 1010.2
20260506013506 59 316 3.0 4.0 0.02 0.46 0.06 95 1010.2
20260506013359 59 316 2.0 4.0 0.03 0.46 0.06 95 1010.3
20260506013300 59 316 3.0 4.0 0.03 0.46 0.06 95 1010.4
20260506013203 59 355 3.0 4.0 0.03 0.46 0.06 95 1010.4
20260506013101 59 355 2.0 3.0 0.03 0.46 0.06 95 1010.5
20260506013000 59 355 2.0 3.0 0.03 0.46 0.06 95 1010.5
20260506012902 59 355 3.0 3.0 0.03 0.46 0.06 95 1010.5
20260506012800 59 355 3.0 3.0 0.04 0.46 0.06 95 1010.5
20260506012700 59 355 1.0 2.0 0.05 0.46 0.06 95 1010.5
20260506012606 59 355 2.0 2.0 0.05 0.46 0.06 95 1010.5
20260506012459 59 355 2.0 2.0 0.05 0.46 0.06 94 1010.5
20260506012400 59 355 2.0 2.0 0.05 0.46 0.06 95 1010.4
20260506012307 59 355 2.0 2.0 0.05 0.46 0.06 94 1010.4
20260506012159 59 355 1.0 2.0 0.05 0.46 0.06 95 1010.4
20260506012058 59 355 1.0 2.0 0.05 0.46 0.06 94 1010.4
20260506011900 59 355 2.0 2.0 0.05 0.46 0.06 94 1010.3
20260506011759 59 355 1.0 2.0 0.05 0.46 0.06 94 1010.3
20260506011702 59 355 0.0 3.0 0.05 0.46 0.06 95 1010.4
20260506011600 59 355 0.0 3.0 0.05 0.46 0.06 95 1010.4
20260506011500 59 355 0.0 3.0 0.05 0.46 0.06 95 1010.5
20260506011200 59 355 1.0 3.0 0.05 0.46 0.06 94 1010.5
20260506011102 59 355 0.0 3.0 0.04 0.45 0.05 94 1010.5
20260506011001 59 355 0.0 3.0 0.04 0.45 0.05 94 1010.5
20260506010859 59 355 1.0 3.0 0.04 0.45 0.05 94 1010.6
20260506010802 59 355 2.0 3.0 0.04 0.45 0.05 94 1010.5
20260506010701 59 355 2.0 3.0 0.04 0.45 0.05 94 1010.5
20260506010600 59 355 1.0 2.0 0.04 0.45 0.05 94 1010.5
20260506010505 59 355 1.0 2.0 0.04 0.45 0.05 94 1010.5
20260506010400 59 355 1.0 2.0 0.04 0.45 0.05 94 1010.4
20260506010203 59 355 1.0 2.0 0.04 0.45 0.05 94 1010.5
20260506005800 59 355 0.0 4.0 0.04 0.45 0.05 94 1010.5
20260506005659 59 355 1.0 4.0 0.04 0.45 0.05 94 1010.5
20260506005602 59 355 1.0 4.0 0.04 0.45 0.05 94 1010.5
20260506005500 59 355 1.0 4.0 0.04 0.45 0.05 94 1010.5
20260506005400 59 355 1.0 4.0 0.04 0.45 0.05 94 1010.5
20260506005305 59 355 2.0 4.0 0.04 0.45 0.05 94 1010.6
20260506005159 59 355 2.0 5.0 0.04 0.45 0.05 94 1010.6
20260506005003 59 341 4.0 5.0 0.04 0.45 0.05 94 1010.6
20260506004900 59 341 3.0 5.0 0.04 0.45 0.05 94 1010.6
20260506004702 59 341 2.0 5.0 0.04 0.45 0.05 94 1010.6
20260506004600 59 341 1.0 5.0 0.04 0.45 0.05 94 1010.6
20260506004500 59 341 2.0 5.0 0.04 0.45 0.05 94 1010.6
20260506004402 59 341 1.0 5.0 0.04 0.45 0.05 94 1010.6
20260506004259 59 341 3.0 5.0 0.04 0.45 0.05 94 1010.7
20260506004200 59 267 2.0 3.0 0.04 0.45 0.05 94 1010.7
20260506004102 59 267 0.0 3.0 0.04 0.45 0.05 94 1010.7
20260506004001 59 267 1.0 4.0 0.04 0.45 0.05 94 1010.7
20260506003859 59 267 2.0 4.0 0.04 0.45 0.05 94 1010.7
20260506003803 59 267 2.0 4.0 0.04 0.45 0.05 94 1010.8
20260506003658 59 267 1.0 4.0 0.03 0.44 0.04 94 1010.9
20260506003502 59 267 0.0 4.0 0.02 0.43 0.03 94 1011.0
20260506003401 59 267 3.0 4.0 0.02 0.43 0.02 94 1010.9
20260506003259 59 267 3.0 4.0 0.02 0.43 0.02 94 1010.9
20260506003202 59 267 3.0 4.0 0.02 0.43 0.02 94 1010.9
20260506003000 59 267 3.0 4.0 0.02 0.43 0.02 94 1010.9
20260506002800 59 267 2.0 3.0 0.01 0.42 0.02 94 1010.9
20260506002602 59 267 2.0 3.0 0.00 0.41 0.01 94 1010.9
20260506002500 59 267 3.0 3.0 0.00 0.41 0.01 94 1010.9
20260506002401 59 267 2.0 3.0 0.00 0.41 0.01 94 1010.9
20260506002306 59 267 3.0 3.0 0.00 0.41 0.01 94 1010.9
20260506002159 59 267 2.0 3.0 0.00 0.41 0.01 94 1010.9
20260506002059 59 267 1.0 3.0 0.00 0.41 0.01 94 1010.9
20260506002003 59 267 1.0 3.0 0.00 0.41 0.01 94 1010.8
20260506001859 59 267 1.0 3.0 0.00 0.41 0.01 94 1010.9
20260506001702 59 267 2.0 4.0 0.00 0.41 0.01 94 1010.9
20260506001559 59 267 0.0 4.0 0.00 0.41 0.01 94 1010.9
20260506001402 59 267 2.0 4.0 0.00 0.41 0.01 94 1011.0
20260506001300 59 267 0.0 4.0 0.00 0.41 0.01 94 1010.9
20260506001159 59 267 1.0 4.0 0.00 0.41 0.01 94 1011.0
20260506001102 59 267 1.0 4.0 0.00 0.41 0.01 94 1011.0
20260506001000 59 267 2.0 4.0 0.00 0.41 0.01 94 1010.9
20260506000900 59 267 2.0 4.0 0.00 0.41 0.01 94 1011.0
20260506000700 59 277 2.0 4.0 0.00 0.41 0.01 94 1010.9
20260506000600 59 277 2.0 4.0 0.00 0.41 0.01 94 1010.9
20260506000401 59 277 2.0 4.0 0.00 0.41 0.01 94 1010.9
20260506000302 59 126 2.0 3.0 0.00 0.41 0.01 94 1010.9
20260506000204 59 126 2.0 4.0 0.00 0.41 0.01 94 1010.9
20260506000113 58 126 2.0 4.0 0.00 0.41 0.01 94 1010.9
20260506000005 58 126 2.0 4.0 0.00 0.41 0.01 94 1010.9
20260505235902 58 126 1.0 4.0 0.00 0.41 0.01 94 1010.9
20260505235759 58 126 2.0 4.0 0.00 0.41 0.01 94 1010.9
20260505235659 58 126 1.0 4.0 0.00 0.41 0.01 93 1010.9
20260505235603 58 126 1.0 4.0 0.00 0.41 0.01 93 1010.9
20260505235500 58 126 0.0 4.0 0.00 0.41 0.01 93 1010.9
20260505235400 58 126 0.0 4.0 0.00 0.41 0.01 93 1010.9
20260505235305 58 126 1.0 4.0 0.00 0.41 0.01 93 1010.9
20260505235200 58 126 3.0 5.0 0.00 0.41 0.01 93 1010.9
20260505235100 58 126 3.0 5.0 0.00 0.41 0.01 93 1010.8
20260505235003 58 126 3.0 5.0 0.00 0.41 0.01 93 1010.8
20260505234759 58 126 0.0 5.0 0.00 0.41 0.01 93 1010.7
20260505234702 58 126 0.0 5.0 0.00 0.41 0.01 93 1010.7
20260505234500 58 126 1.0 5.0 0.00 0.41 0.01 93 1010.7
20260505234402 58 126 4.0 5.0 0.00 0.41 0.01 93 1010.8
20260505234300 58 126 3.0 5.0 0.00 0.41 0.01 93 1010.9
20260505234159 58 126 4.0 4.0 0.00 0.41 0.01 93 1010.9
20260505234102 58 126 3.0 4.0 0.00 0.41 0.01 93 1010.9
20260505233900 58 126 4.0 4.0 0.00 0.41 0.01 93 1011.0
20260505233802 58 126 3.0 4.0 0.00 0.41 0.01 93 1011.0
20260505233659 58 126 3.0 4.0 0.00 0.41 0.01 93 1011.0
20260505233559 58 126 3.0 4.0 0.00 0.41 0.01 93 1011.0
20260505233503 58 126 3.0 4.0 0.00 0.41 0.01 93 1011.0
20260505233300 59 126 3.0 4.0 0.00 0.41 0.01 93 1011.0
20260505233202 59 126 3.0 4.0 0.00 0.41 0.01 93 1010.9
20260505233100 59 126 4.0 6.0 0.00 0.41 0.01 93 1010.9
20260505233000 59 126 3.0 6.0 0.00 0.41 0.01 93 1010.9
20260505232902 59 126 1.0 6.0 0.00 0.41 0.01 93 1010.9
20260505232759 59 126 1.0 6.0 0.00 0.41 0.01 93 1010.9
20260505232700 59 126 2.0 6.0 0.00 0.41 0.01 93 1010.9
20260505232603 59 126 3.0 6.0 0.00 0.41 0.01 93 1010.9
20260505232500 59 126 2.0 6.0 0.00 0.41 0.01 93 1010.9
20260505232359 59 126 1.0 6.0 0.00 0.41 0.01 93 1010.9
20260505232305 59 126 1.0 6.0 0.00 0.41 0.01 93 1010.9
20260505232159 59 126 4.0 6.0 0.00 0.41 0.01 93 1011.0
20260505232100 59 126 4.0 5.0 0.00 0.41 0.01 93 1011.0
20260505232003 59 126 4.0 4.0 0.00 0.41 0.01 93 1011.0
20260505231859 59 126 4.0 4.0 0.00 0.41 0.01 92 1011.0
20260505231759 59 126 3.0 4.0 0.00 0.41 0.01 92 1011.0
20260505231702 59 126 2.0 3.0 0.00 0.41 0.01 92 1011.0
20260505231500 59 126 2.0 2.0 0.00 0.41 0.01 93 1011.0
20260505231403 59 126 1.0 2.0 0.00 0.41 0.01 92 1011.0
20260505231300 59 126 2.0 2.0 0.00 0.41 0.01 92 1011.0
20260505231159 59 126 1.0 2.0 0.00 0.41 0.01 92 1011.0
20260505231102 59 126 0.0 1.0 0.01 0.41 0.01 92 1011.0
20260505231000 59 126 0.0 1.0 0.01 0.41 0.01 93 1010.9
20260505230802 59 126 1.0 1.0 0.01 0.41 0.01 92 1010.9
20260505230700 59 126 1.0 1.0 0.01 0.41 0.01 92 1010.9
20260505230600 59 126 1.0 1.0 0.01 0.41 0.01 92 1010.9
20260505230503 59 126 1.0 2.0 0.01 0.41 0.01 92 1010.9
20260505230359 59 126 1.0 2.0 0.01 0.41 0.01 92 1010.9
20260505230259 59 126 0.0 2.0 0.01 0.41 0.01 92 1011.0
20260505230059 59 126 1.0 2.0 0.01 0.41 0.01 92 1010.9
20260505230005 59 126 0.0 2.0 0.01 0.41 0.01 92 1011.0
20260505225903 59 126 1.0 2.0 0.01 0.41 0.01 92 1011.0
20260505225759 59 126 1.0 2.0 0.01 0.41 0.01 92 1011.0
20260505225700 59 126 0.0 2.0 0.01 0.41 0.01 92 1011.0
20260505225602 59 126 1.0 2.0 0.01 0.41 0.01 92 1011.0
20260505225459 59 126 2.0 4.0 0.01 0.41 0.01 92 1011.0
20260505225305 59 126 2.0 4.0 0.01 0.41 0.01 92 1011.1
20260505225158 59 126 0.0 4.0 0.01 0.41 0.01 92 1011.1
20260505225004 59 126 1.0 4.0 0.01 0.41 0.01 92 1011.1
20260505224859 59 126 2.0 4.0 0.01 0.41 0.01 92 1011.2
20260505224703 59 126 1.0 5.0 0.01 0.41 0.01 92 1011.2
20260505224559 59 126 2.0 5.0 0.01 0.41 0.01 92 1011.1
20260505224458 59 126 3.0 5.0 0.01 0.41 0.01 92 1011.1
20260505224300 59 126 3.0 5.0 0.01 0.41 0.01 92 1011.2
20260505224200 59 126 3.0 5.0 0.01 0.41 0.01 92 1011.2
20260505224102 59 126 3.0 5.0 0.01 0.41 0.01 92 1011.2
20260505224000 60 126 3.0 5.0 0.01 0.41 0.01 92 1011.2
20260505223859 60 126 3.0 5.0 0.01 0.41 0.01 92 1011.1
20260505223802 60 128 4.0 5.0 0.01 0.41 0.01 92 1011.1
20260505223600 60 111 4.0 6.0 0.01 0.41 0.01 92 1011.1
20260505223502 60 90 5.0 6.0 0.01 0.41 0.01 92 1011.2
20260505223359 60 90 3.0 6.0 0.01 0.41 0.01 92 1011.2
20260505223259 60 90 2.0 6.0 0.01 0.41 0.01 91 1011.2
20260505223202 60 90 5.0 6.0 0.01 0.41 0.01 91 1011.2
20260505223001 60 90 3.0 6.0 0.01 0.41 0.01 91 1011.2
20260505222903 60 90 3.0 6.0 0.01 0.41 0.01 91 1011.2
20260505222800 60 90 3.0 6.0 0.01 0.41 0.01 91 1011.2
20260505222659 60 90 3.0 6.0 0.01 0.41 0.01 91 1011.3
20260505222500 60 90 3.0 6.0 0.01 0.41 0.01 91 1011.3
20260505222305 60 90 3.0 6.0 0.01 0.41 0.01 91 1011.4
20260505222159 60 90 5.0 5.0 0.01 0.41 0.01 91 1011.4
20260505222059 60 90 5.0 5.0 0.01 0.41 0.01 91 1011.4
20260505222004 60 90 3.0 5.0 0.01 0.41 0.01 91 1011.4
20260505221900 60 90 2.0 3.0 0.01 0.41 0.01 91 1011.4
20260505221702 60 90 2.0 3.0 0.01 0.41 0.01 91 1011.4
20260505221600 60 90 2.0 3.0 0.01 0.41 0.01 91 1011.4
20260505221500 60 90 2.0 3.0 0.01 0.41 0.01 91 1011.4
20260505221403 60 90 3.0 3.0 0.01 0.41 0.01 91 1011.4
20260505221300 60 90 3.0 3.0 0.01 0.41 0.01 91 1011.4
20260505221000 60 90 2.0 3.0 0.00 0.40 0.00 91 1011.5
20260505220900 60 90 2.0 5.0 0.00 0.40 0.00 91 1011.5
20260505220659 60 90 2.0 5.0 0.00 0.40 0.00 91 1011.5
20260505220559 60 90 2.0 5.0 0.00 0.40 0.00 91 1011.6
20260505220400 60 90 1.0 5.0 0.00 0.40 0.00 90 1011.6
20260505220301 60 90 1.0 5.0 0.00 0.40 0.00 90 1011.6
20260505220115 60 90 1.0 5.0 0.00 0.40 0.00 90 1011.7
20260505220006 60 90 3.0 5.0 0.00 0.40 0.00 90 1011.7
20260505215800 60 90 5.0 5.0 0.00 0.40 0.40 90 1011.7
20260505215700 60 90 3.0 5.0 0.00 0.40 0.40 90 1011.7
20260505215400 60 90 0.0 3.0 0.00 0.40 0.40 90 1011.7
20260505215305 60 90 1.0 3.0 0.00 0.40 0.40 90 1011.6
20260505215200 60 90 0.0 3.0 0.00 0.40 0.40 90 1011.7
20260505215101 60 90 0.0 3.0 0.00 0.40 0.40 90 1011.7
20260505215004 60 90 2.0 3.0 0.00 0.40 0.40 90 1011.7
20260505214901 60 90 1.0 3.0 0.00 0.40 0.40 90 1011.7
20260505214702 60 90 2.0 3.0 0.00 0.40 0.40 90 1011.7
20260505214601 60 90 3.0 3.0 0.00 0.40 0.40 90 1011.7
20260505214501 60 90 3.0 5.0 0.00 0.40 0.40 90 1011.7
20260505214403 60 90 1.0 5.0 0.00 0.40 0.40 90 1011.7
20260505214301 60 90 1.0 5.0 0.00 0.40 0.40 90 1011.7
20260505214200 60 90 2.0 5.0 0.00 0.40 0.40 90 1011.7
20260505214001 60 90 1.0 5.0 0.00 0.40 0.40 89 1011.7
20260505213900 60 90 1.0 5.0 0.00 0.40 0.40 89 1011.7
20260505213803 60 90 0.0 5.0 0.00 0.40 0.40 89 1011.7
20260505213700 60 90 2.0 5.0 0.00 0.40 0.40 89 1011.8
20260505213504 60 90 3.0 5.0 0.00 0.40 0.40 89 1011.8
20260505213401 60 90 2.0 3.0 0.00 0.40 0.40 89 1011.7
20260505213301 60 90 1.0 3.0 0.00 0.40 0.40 89 1011.8
20260505213203 60 90 0.0 3.0 0.00 0.40 0.40 89 1011.7
20260505213101 60 90 1.0 3.0 0.00 0.40 0.40 89 1011.8
20260505213002 60 90 2.0 3.0 0.00 0.40 0.40 89 1011.8
20260505212903 60 90 0.0 3.0 0.00 0.40 0.40 89 1011.7
20260505212700 60 90 2.0 3.0 0.00 0.40 0.40 89 1011.7
20260505212501 60 90 2.0 6.0 0.00 0.40 0.40 89 1011.7
20260505212401 60 90 2.0 6.0 0.00 0.40 0.40 89 1011.7
20260505212159 60 90 3.0 7.0 0.00 0.40 0.40 88 1011.7
20260505212100 60 90 2.0 7.0 0.00 0.40 0.40 88 1011.7
20260505212004 60 90 2.0 7.0 0.00 0.40 0.40 88 1011.6
20260505211900 60 90 1.0 7.0 0.00 0.40 0.40 88 1011.7
20260505211800 61 90 2.0 7.0 0.00 0.40 0.40 88 1011.7
20260505211703 61 90 2.0 7.0 0.00 0.40 0.40 88 1011.7
20260505211600 61 90 2.0 7.0 0.00 0.40 0.40 88 1011.7
20260505211301 61 90 6.0 7.0 0.00 0.40 0.40 88 1011.7
20260505211200 61 90 5.0 7.0 0.00 0.40 0.40 88 1011.7
20260505211103 61 90 5.0 7.0 0.00 0.40 0.40 88 1011.7
20260505211001 61 90 5.0 7.0 0.00 0.40 0.40 88 1011.7
20260505210900 61 90 6.0 7.0 0.00 0.40 0.40 88 1011.7
20260505210803 61 90 5.0 7.0 0.00 0.40 0.40 88 1011.7
20260505210700 61 90 5.0 7.0 0.00 0.40 0.40 88 1011.7
20260505210503 61 90 1.0 7.0 0.00 0.40 0.40 88 1011.7
20260505210400 61 90 0.0 7.0 0.00 0.40 0.40 88 1011.7
20260505210301 61 90 1.0 8.0 0.00 0.40 0.40 88 1011.7
20260505210203 61 90 2.0 8.0 0.00 0.40 0.40 88 1011.8
20260505210001 61 90 6.0 8.0 0.00 0.40 0.40 88 1011.7
20260505205904 61 90 6.0 8.0 0.00 0.40 0.40 88 1011.7
20260505205800 61 90 6.0 8.0 0.00 0.40 0.40 88 1011.7
20260505205605 61 90 6.0 8.0 0.00 0.40 0.40 88 1011.7
20260505205501 61 84 5.0 8.0 0.00 0.40 0.40 88 1011.7
20260505205401 61 84 6.0 8.0 0.00 0.40 0.40 88 1011.7
20260505205306 61 75 7.0 8.0 0.00 0.40 0.40 88 1011.6
20260505205201 61 71 5.0 8.0 0.00 0.40 0.40 88 1011.6
20260505205101 61 71 7.0 8.0 0.00 0.40 0.40 87 1011.6
20260505205004 61 82 7.0 7.0 0.00 0.40 0.40 88 1011.6
20260505204900 61 67 3.0 6.0 0.00 0.40 0.40 87 1011.6
20260505204800 61 63 4.0 5.0 0.00 0.40 0.40 87 1011.6
20260505204703 61 60 4.0 5.0 0.00 0.40 0.40 87 1011.6
20260505204501 61 37 3.0 4.0 0.00 0.40 0.40 87 1011.6
20260505204403 61 58 3.0 4.0 0.00 0.40 0.40 87 1011.5
20260505204259 61 58 3.0 4.0 0.00 0.40 0.40 87 1011.5
20260505203803 61 114 2.0 3.0 0.00 0.40 0.40 87 1011.6
20260505203700 61 114 1.0 3.0 0.00 0.40 0.40 87 1011.5
20260505203601 61 114 1.0 3.0 0.00 0.40 0.40 87 1011.6
20260505203504 61 114 2.0 3.0 0.00 0.40 0.40 87 1011.5
20260505203400 61 114 2.0 3.0 0.00 0.40 0.40 89 1011.6
20260505203303 61 144 2.0 3.0 0.00 0.40 0.40 86 1011.6
20260505203103 61 144 1.0 2.0 0.00 0.40 0.40 86 1011.5
20260505203002 61 144 1.0 2.0 0.00 0.40 0.40 86 1011.6
20260505202801 61 144 0.0 2.0 0.00 0.40 0.40 86 1011.6
20260505202701 61 144 1.0 2.0 0.00 0.40 0.40 86 1011.5
20260505202607 61 144 1.0 2.0 0.00 0.40 0.40 86 1011.5
20260505202502 61 136 1.0 2.0 0.00 0.40 0.40 86 1011.6
20260505202401 61 136 0.0 3.0 0.00 0.40 0.40 86 1011.6
20260505202308 61 136 0.0 4.0 0.00 0.40 0.40 86 1011.6
20260505202202 61 136 1.0 4.0 0.00 0.40 0.40 86 1011.5
20260505202101 61 128 2.0 4.0 0.00 0.40 0.40 86 1011.5
20260505202006 61 128 1.0 4.0 0.00 0.40 0.40 86 1011.5
20260505201901 61 128 2.0 5.0 0.00 0.40 0.40 86 1011.5
20260505201602 62 128 1.0 5.0 0.00 0.40 0.40 86 1011.5
20260505201501 62 128 1.0 5.0 0.00 0.40 0.40 86 1011.5
20260505201302 62 130 3.0 7.0 0.00 0.40 0.40 86 1011.5
20260505201202 62 130 3.0 7.0 0.00 0.40 0.40 86 1011.5
20260505201105 62 130 3.0 7.0 0.00 0.40 0.40 86 1011.5
20260505200902 61 133 4.0 9.0 0.00 0.40 0.40 87 1011.4
20260505200806 61 142 3.0 9.0 0.00 0.40 0.40 87 1011.3
20260505200703 61 133 3.0 9.0 0.00 0.40 0.40 87 1011.4
20260505200601 61 180 1.0 9.0 0.00 0.40 0.40 87 1011.4
20260505200507 61 180 5.0 9.0 0.00 0.40 0.40 88 1011.4
20260505200206 61 176 2.0 9.0 0.00 0.40 0.40 88 1011.4
20260505200005 61 182 3.0 9.0 0.00 0.40 0.40 89 1011.5
20260505195906 61 187 2.0 9.0 0.00 0.40 0.40 89 1011.5
20260505195703 61 159 4.0 7.0 0.00 0.40 0.40 89 1011.5
20260505195606 61 192 4.0 7.0 0.00 0.40 0.40 89 1011.5
20260505195502 61 213 2.0 7.0 0.00 0.40 0.40 89 1011.5
20260505195402 61 198 3.0 7.0 0.00 0.40 0.40 89 1011.5
20260505195308 61 198 2.0 7.0 0.00 0.40 0.40 89 1011.5
20260505195201 61 198 3.0 7.0 0.00 0.40 0.40 89 1011.5
20260505195102 61 198 2.0 7.0 0.00 0.40 0.40 89 1011.5
20260505194804 61 188 0.0 7.0 0.00 0.40 0.40 89 1011.5
20260505194706 61 189 4.0 7.0 0.00 0.40 0.40 89 1011.5
20260505194601 61 194 5.0 7.0 0.00 0.40 0.40 89 1011.5
20260505194504 61 180 2.0 5.0 0.00 0.40 0.40 89 1011.5
20260505194302 61 136 2.0 3.0 0.00 0.40 0.40 89 1011.5
20260505194203 61 136 2.0 3.0 0.00 0.40 0.40 89 1011.5
20260505194107 61 13 1.0 2.0 0.00 0.40 0.40 89 1011.5
20260505194002 61 13 0.0 2.0 0.00 0.40 0.40 88 1011.4
20260505193901 61 13 0.0 2.0 0.00 0.40 0.40 88 1011.4
20260505193808 61 13 1.0 2.0 0.00 0.40 0.40 88 1011.4
20260505193702 61 13 1.0 2.0 0.00 0.40 0.40 88 1011.3
20260505193521 61 13 0.0 3.0 0.00 0.40 0.40 88 1011.3
20260505193402 61 13 0.0 3.0 0.00 0.40 0.40 88 1011.3
20260505193301 61 13 1.0 3.0 0.00 0.40 0.40 88 1011.3
20260505193208 61 13 2.0 3.0 0.00 0.40 0.40 88 1011.3
20260505193101 61 13 2.0 3.0 0.00 0.40 0.40 88 1011.3
20260505193003 61 13 1.0 3.0 0.00 0.40 0.40 87 1011.3
20260505192803 62 13 1.0 3.0 0.00 0.40 0.40 87 1011.2
20260505192701 62 13 2.0 3.0 0.00 0.40 0.40 87 1011.2
20260505192606 62 13 3.0 3.0 0.00 0.40 0.40 87 1011.2
20260505192501 62 13 2.0 3.0 0.00 0.40 0.40 87 1011.2
20260505192201 62 13 1.0 3.0 0.00 0.40 0.40 87 1011.2
20260505192006 62 13 2.0 3.0 0.00 0.40 0.40 87 1011.2
20260505191902 62 13 1.0 3.0 0.00 0.40 0.40 87 1011.2
20260505191800 62 13 1.0 3.0 0.00 0.40 0.40 87 1011.1
20260505191601 62 13 1.0 3.0 0.00 0.40 0.40 87 1011.1
20260505191404 62 13 1.0 3.0 0.00 0.40 0.40 86 1011.0
20260505191200 62 13 1.0 3.0 0.00 0.40 0.40 86 1011.0
20260505191103 62 13 2.0 3.0 0.00 0.40 0.40 86 1011.0
20260505191004 62 13 3.0 3.0 0.00 0.40 0.40 86 1011.0
20260505190859 62 305 2.0 3.0 0.00 0.40 0.40 86 1011.0
20260505190701 62 305 2.0 3.0 0.00 0.40 0.40 86 1011.0
20260505190601 63 305 3.0 3.0 0.00 0.40 0.40 86 1011.0
20260505190506 63 305 2.0 2.0 0.00 0.40 0.40 86 1011.0
20260505190401 63 305 1.0 2.0 0.00 0.40 0.40 86 1010.9
20260505190301 63 305 1.0 2.0 0.00 0.40 0.40 86 1010.9
20260505190205 63 305 1.0 2.0 0.00 0.40 0.40 86 1010.9
20260505190005 63 305 1.0 2.0 0.00 0.40 0.40 86 1010.8
20260505185801 63 305 1.0 2.0 0.00 0.40 0.40 86 1010.8
20260505185701 63 305 2.0 3.0 0.00 0.40 0.40 85 1010.9
20260505185605 63 305 1.0 3.0 0.00 0.40 0.40 85 1010.9
20260505185501 63 305 2.0 3.0 0.00 0.40 0.40 85 1010.8
20260505185401 63 305 1.0 3.0 0.00 0.40 0.40 85 1010.8
20260505185305 63 305 0.0 3.0 0.00 0.40 0.40 85 1010.8
20260505185200 63 305 0.0 3.0 0.00 0.40 0.40 85 1010.8
20260505185100 63 305 0.0 3.0 0.00 0.40 0.40 85 1010.7
20260505185005 63 305 1.0 3.0 0.00 0.40 0.40 85 1010.7
20260505184703 63 305 2.0 3.0 0.00 0.40 0.40 84 1010.8
20260505184601 63 151 0.0 3.0 0.00 0.40 0.40 84 1010.7
20260505184302 63 151 2.0 3.0 0.00 0.40 0.40 83 1010.7
20260505184201 63 151 2.0 3.0 0.00 0.40 0.40 83 1010.7
20260505184104 63 151 0.0 3.0 0.00 0.40 0.40 83 1010.7
20260505184000 63 151 1.0 3.0 0.00 0.40 0.40 83 1010.6
20260505183901 63 151 3.0 3.0 0.00 0.40 0.40 83 1010.7
20260505183804 63 172 2.0 3.0 0.00 0.40 0.40 83 1010.7
20260505183701 63 172 1.0 3.0 0.00 0.40 0.40 83 1010.7
20260505183401 64 172 1.0 3.0 0.00 0.40 0.40 83 1010.7
20260505183304 64 172 1.0 3.0 0.00 0.40 0.40 83 1010.6
20260505183204 64 172 1.0 3.0 0.00 0.40 0.40 83 1010.6
20260505183101 64 172 2.0 3.0 0.01 0.40 0.40 83 1010.6
20260505183001 64 172 1.0 3.0 0.01 0.40 0.40 83 1010.7
20260505182904 64 172 2.0 3.0 0.01 0.40 0.40 83 1010.7
20260505182800 64 172 2.0 3.0 0.01 0.40 0.40 83 1010.7
20260505182701 64 192 1.0 2.0 0.01 0.40 0.40 83 1010.6
20260505182603 64 192 1.0 2.0 0.01 0.40 0.40 83 1010.6
20260505182501 64 201 1.0 2.0 0.01 0.40 0.40 82 1010.6
20260505182401 64 201 1.0 2.0 0.01 0.40 0.40 82 1010.6
20260505182306 64 207 1.0 1.0 0.01 0.40 0.40 82 1010.7
20260505182100 64 207 1.0 2.0 0.01 0.40 0.40 81 1010.7
20260505181705 65 207 0.0 2.0 0.01 0.40 0.40 81 1010.6
20260505181601 65 207 0.0 2.0 0.01 0.40 0.40 81 1010.6
20260505181501 65 207 0.0 2.0 0.01 0.40 0.40 81 1010.6
20260505181403 65 207 0.0 3.0 0.01 0.40 0.40 80 1010.6
20260505181103 65 207 0.0 4.0 0.01 0.40 0.40 81 1010.6
20260505181001 65 207 0.0 4.0 0.01 0.40 0.40 80 1010.6
20260505180859 65 207 0.0 4.0 0.01 0.40 0.40 80 1010.6
20260505180700 65 207 1.0 5.0 0.01 0.40 0.40 80 1010.6
20260505180504 65 203 2.0 5.0 0.01 0.40 0.40 80 1010.6
20260505180401 65 202 3.0 5.0 0.01 0.40 0.40 79 1010.5
20260505180300 65 202 3.0 5.0 0.01 0.40 0.40 79 1010.6
20260505180200 65 202 1.0 5.0 0.01 0.40 0.40 79 1010.5
20260505180118 65 202 3.0 7.0 0.01 0.40 0.40 79 1010.5
20260505180005 65 202 3.0 7.0 0.01 0.40 0.40 79 1010.5
20260505175900 65 187 2.0 7.0 0.01 0.40 0.40 79 1010.5
20260505175804 65 196 4.0 9.0 0.01 0.40 0.40 79 1010.5
20260505175700 65 191 2.0 10.0 0.01 0.40 0.40 79 1010.5